Location: Unspecified
(43.3830°N, 0.0000°E)
Time: 19:20:06
(UTC+00:00)

Vanguard 2 - Pass Details

Date: 21 June 2019
Orbit: 554 x 2938 km, 32.9° (Epoch: 24 August)

Event Time Altitude Azimuth Distance (km) Brightness Sun altitude
Rises 13:55:41 0° 268° (W) 4,728 12.0 59.2°
Reaches altitude 10° 13:59:01 10° 257° (WSW) 4,074 11.9 58.7°
Maximum altitude 14:08:11 28° 204° (SSW) 3,588 11.9 57.3°
Drops below altitude 10° 14:20:34 10° 155° (SSE) 5,551 12.0 55.2°
Sets 14:26:12 0° 145° (SE) 6,727 12.3 54.3°
